This demonstration page uses our WeatherBlox Daily Observations layout. Learn more.

Left ArrowRight Arrow

36.17497, -115.13722

Hourly Observations for February 29, 2020

Temp ( °F °C ) Dew Point ( °F °C ) Humidity (%) Winds ( mph kmh ) Pressure ( in mb ) Visibility ( mi km ) Precip ( " mm )
12:53 am 00:53 Clear 49 9.4 25 -3.9 39 39 NW 5 7 30.11 1020 10 16.0934 0 0
1:53 am 01:53 Clear 49 9.4 25 -3.9 39 39 NW 6 9 30.09 1019 10 16.0934 0 0
2:53 am 02:53 Clear 49 9.4 26 -3.3 41 41 NNW 3 6 30.07 1018 10 16.0934 0 0
3:53 am 03:53 Clear 50 10 25 -3.9 38 38 Calm 30.06 1018 10 16.0934 0 0
4:53 am 04:53 Clear 48 8.9 26 -3.3 42 42 NW 6 9 30.06 1018 10 16.0934 0 0
5:53 am 05:53 Clear 49 9.4 26 -3.3 41 41 W 6 9 30.05 1018 10 16.0934 0 0
6:53 am 06:53 Sunny 50 10 28 -2.2 43 43 Calm 30.06 1018 10 16.0934 0 0
7:53 am 07:53 Sunny 52 11.1 27 -2.8 38 38 Calm 30.07 1018 10 16.0934 0 0
8:53 am 08:53 Sunny 55 12.8 28 -2.2 35 35 E 6 9 30.06 1018 10 16.0934 0 0
9:53 am 09:53 Sunny 57 13.9 28 -2.2 33 33 Calm 30.06 1018 10 16.0934 0 0
10:53 am 10:53 Sunny 60 15.6 28 -2.2 30 30 VRB 6 9 30.04 1017 10 16.0934 0 0
11:53 am 11:53 Sunny 61 16.1 28 -2.2 29 29 E 6 9 30.01 1016 10 16.0934 0 0
12:53 pm 12:53 Sunny 63 17.2 28 -2.2 27 27 E 6 9 29.98 1015 10 16.0934 0 0
1:53 pm 13:53 Sunny 65 18.3 27 -2.8 24 24 VRB 3 6 29.95 1014 10 16.0934 0 0
2:53 pm 14:53 Sunny 66 18.9 27 -2.8 23 23 ESE 3 6 29.92 1013 10 16.0934 0 0
3:53 pm 15:53 Sunny 66 18.9 28 -2.2 24 24 NE 8 13 29.89 1012 10 16.0934 0 0
4:53 pm 16:53 Sunny 66 18.9 29 -1.7 25 25 ENE 5 7 29.88 1012 10 16.0934 0 0
5:53 pm 17:53 Clear 65 18.3 29 -1.7 26 26 Calm 29.87 1012 10 16.0934 0 0
6:53 pm 18:53 Clear 61 16.1 30 -1.1 31 31 Calm 29.86 1011 10 16.0934 0 0
7:53 pm 19:53 Clear 58 14.4 30 -1.1 35 35 WNW 3 6 29.85 1011 10 16.0934 0 0
8:53 pm 20:53 Clear 55 12.8 31 -0.6 40 40 NW 3 6 29.85 1011 10 16.0934 0 0
9:53 pm 21:53 Clear 54 12.2 31 -0.6 42 42 WNW 3 6 29.85 1011 10 16.0934 0 0
10:53 pm 22:53 Clear 61 16.1 24 -4.4 24 24 S 14 22 29.8 1009 10 16.0934 0 0
11:53 pm 23:53 Clear 61 16.1 24 -4.4 24 24 S 15 24 29.78 1008 10 16.0934 0 0

Powered by AerisWeather